• In Österreich
  • Länderverzeichnis
  • Für 7 Tage
  • Wassertemperatur
  • Satellitenkarten
  • Wetterkarte
  • News
  • Widgets
  • user-avatar
    Anmelden

    Stündliche Wetter Warna

    Heute, 25 Februar, Sonntag

    Zeit Temperatur Niederschläge Wind Luftdruck Luftfeuchtigkeit
    00:00 -3°C° 0,2 mm 7 m/S 743 mmHg 91%
    01:00 -4°C° 0,2 mm 7 m/S 743 mmHg 90%
    02:00 -6°C° 0,2 mm 8 m/S 743 mmHg 89%
    03:00 -6°C° 0,1 mm 8 m/S 744 mmHg 88%
    04:00 -7°C° 0,1 mm 7 m/S 744 mmHg 87%
    05:00 -8°C° 0,1 mm 7 m/S 744 mmHg 86%
    06:00 -8°C° 0 mm 7 m/S 744 mmHg 84%
    07:00 -8°C° 0 mm 7 m/S 745 mmHg 83%
    08:00 -8°C° 0 mm 7 m/S 745 mmHg 81%
    09:00 -8°C° 0 mm 6 m/S 745 mmHg 78%
    10:00 -6°C° 0 mm 6 m/S 746 mmHg 76%
    11:00 -5°C° 0 mm 6 m/S 746 mmHg 73%
    12:00 -5°C° 0 mm 6 m/S 746 mmHg 73%
    13:00 -4°C° 0 mm 6 m/S 746 mmHg 73%
    14:00 -4°C° 0 mm 6 m/S 746 mmHg 73%
    15:00 -4°C° 0,1 mm 6 m/S 746 mmHg 75%
    16:00 -4°C° 0,1 mm 6 m/S 746 mmHg 77%
    17:00 -4°C° 0,1 mm 6 m/S 747 mmHg 79%
    18:00 -5°C° 0,1 mm 6 m/S 747 mmHg 80%
    19:00 -5°C° 0,1 mm 6 m/S 747 mmHg 81%
    20:00 -5°C° 0,1 mm 6 m/S 747 mmHg 82%
    21:00 -7°C° 0,1 mm 7 m/S 747 mmHg 83%
    22:00 -7°C° 0,1 mm 7 m/S 747 mmHg 84%
    23:00 -7°C° 0,1 mm 7 m/S 747 mmHg 85%

    Morgen, 26 Februar, Montag

    Zeit Temperatur Niederschläge Wind Luftdruck Luftfeuchtigkeit
    00:00 -7°C° 0,3 mm 8 m/S 747 mmHg 86%
    01:00 -8°C° 0,3 mm 8 m/S 747 mmHg 87%
    02:00 -8°C° 0,3 mm 8 m/S 746 mmHg 88%
    03:00 -9°C° 0,5 mm 9 m/S 746 mmHg 89%
    04:00 -9°C° 0,5 mm 9 m/S 746 mmHg 89%
    05:00 -8°C° 0,5 mm 10 m/S 746 mmHg 89%
    06:00 -8°C° 0,4 mm 10 m/S 745 mmHg 89%
    07:00 -8°C° 0,4 mm 11 m/S 745 mmHg 89%
    08:00 -8°C° 0,4 mm 11 m/S 745 mmHg 89%
    09:00 -8°C° 0,5 mm 11 m/S 745 mmHg 89%
    10:00 -7°C° 0,5 mm 12 m/S 744 mmHg 89%
    11:00 -7°C° 0,5 mm 12 m/S 744 mmHg 89%
    12:00 -7°C° 0,6 mm 12 m/S 743 mmHg 89%
    13:00 -7°C° 0,6 mm 13 m/S 743 mmHg 89%
    14:00 -7°C° 0,6 mm 13 m/S 742 mmHg 90%
    15:00 -7°C° 0,7 mm 13 m/S 741 mmHg 90%
    16:00 -6°C° 0,7 mm 14 m/S 741 mmHg 90%
    17:00 -6°C° 0,7 mm 14 m/S 740 mmHg 90%
    18:00 -6°C° 1,2 mm 14 m/S 740 mmHg 90%
    19:00 -6°C° 1,2 mm 14 m/S 739 mmHg 91%
    20:00 -6°C° 1,2 mm 14 m/S 739 mmHg 92%
    21:00 -6°C° 2,4 mm 13 m/S 739 mmHg 92%
    22:00 -6°C° 2,4 mm 13 m/S 738 mmHg 93%
    23:00 -7°C° 2,4 mm 12 m/S 738 mmHg 94%

    übermorgen, 27 Februar, Dienstag

    Zeit Temperatur Niederschläge Wind Luftdruck Luftfeuchtigkeit
    00:00 -7°C° 1,3 mm 13 m/S 738 mmHg 93%
    01:00 -7°C° 1,3 mm 13 m/S 737 mmHg 92%
    02:00 -7°C° 1,3 mm 13 m/S 737 mmHg 92%
    03:00 -9°C° 0,6 mm 13 m/S 737 mmHg 92%
    04:00 -10°C° 0,6 mm 13 m/S 737 mmHg 91%
    05:00 -11°C° 0,6 mm 14 m/S 737 mmHg 91%
    06:00 -11°C° 0,6 mm 13 m/S 737 mmHg 92%
    07:00 -12°C° 0,6 mm 12 m/S 738 mmHg 92%
    08:00 -13°C° 0,6 mm 10 m/S 738 mmHg 92%
    09:00 -13°C° 0,2 mm 10 m/S 739 mmHg 92%
    10:00 -12°C° 0,2 mm 9 m/S 740 mmHg 92%
    11:00 -12°C° 0,2 mm 8 m/S 741 mmHg 92%
    12:00 -12°C° 0,1 mm 8 m/S 741 mmHg 92%
    13:00 -11°C° 0,1 mm 7 m/S 741 mmHg 92%
    14:00 -11°C° 0,1 mm 7 m/S 742 mmHg 91%
    15:00 -10°C° 0 mm 6 m/S 742 mmHg 91%
    16:00 -10°C° 0 mm 6 m/S 743 mmHg 91%
    17:00 -11°C° 0 mm 5 m/S 743 mmHg 91%
    18:00 -12°C° 0 mm 5 m/S 744 mmHg 92%
    19:00 -12°C° 0 mm 4 m/S 744 mmHg 93%
    20:00 -14°C° 0 mm 4 m/S 745 mmHg 94%
    21:00 -14°C° 0 mm 4 m/S 745 mmHg 94%
    22:00 -15°C° 0 mm 4 m/S 746 mmHg 94%
    23:00 -15°C° 0 mm 4 m/S 746 mmHg 95%

    28 Februar, Mittwoch

    Zeit Temperatur Niederschläge Wind Luftdruck Luftfeuchtigkeit
    00:00 -16°C° 0 mm 4 m/S 746 mmHg 94%
    01:00 -16°C° 0 mm 4 m/S 746 mmHg 94%
    02:00 -16°C° 0 mm 4 m/S 746 mmHg 94%
    03:00 -16°C° 0,1 mm 4 m/S 746 mmHg 94%
    04:00 -15°C° 0,1 mm 4 m/S 746 mmHg 94%
    05:00 -15°C° 0,1 mm 4 m/S 746 mmHg 94%
    06:00 -15°C° 0,7 mm 5 m/S 746 mmHg 94%
    07:00 -14°C° 0,7 mm 5 m/S 746 mmHg 95%
    08:00 -15°C° 0,7 mm 6 m/S 745 mmHg 96%
    09:00 -15°C° 1 mm 6 m/S 745 mmHg 96%
    10:00 -14°C° 1 mm 7 m/S 745 mmHg 95%
    11:00 -13°C° 1 mm 8 m/S 745 mmHg 95%
    12:00 -13°C° 0,7 mm 8 m/S 745 mmHg 95%
    13:00 -13°C° 0,7 mm 8 m/S 745 mmHg 94%
    14:00 -13°C° 0,7 mm 8 m/S 745 mmHg 94%
    15:00 -13°C° 0,3 mm 8 m/S 745 mmHg 93%
    16:00 -13°C° 0,3 mm 8 m/S 746 mmHg 93%
    17:00 -13°C° 0,3 mm 8 m/S 746 mmHg 93%
    18:00 -15°C° 0,1 mm 8 m/S 747 mmHg 93%
    19:00 -15°C° 0,1 mm 8 m/S 747 mmHg 93%
    20:00 -14°C° 0,1 mm 7 m/S 748 mmHg 92%
    21:00 -15°C° 0 mm 7 m/S 748 mmHg 93%
    22:00 -17°C° 0 mm 7 m/S 749 mmHg 93%
    23:00 -18°C° 0 mm 7 m/S 749 mmHg 93%

    1 März, Donnerstag

    Zeit Temperatur Niederschläge Wind Luftdruck Luftfeuchtigkeit
    00:00 -17°C° 0 mm 6 m/S 750 mmHg 93%
    01:00 -17°C° 0 mm 6 m/S 750 mmHg 93%
    02:00 -17°C° 0 mm 6 m/S 750 mmHg 94%
    03:00 -17°C° 0 mm 5 m/S 751 mmHg 94%
    04:00 -18°C° 0 mm 5 m/S 751 mmHg 94%
    05:00 -17°C° 0 mm 4 m/S 751 mmHg 94%
    06:00 -17°C° 0 mm 4 m/S 751 mmHg 93%
    07:00 -15°C° 0 mm 3 m/S 752 mmHg 93%
    08:00 -15°C° 0 mm 3 m/S 752 mmHg 92%
    09:00 -13°C° 0 mm 3 m/S 752 mmHg 90%
    10:00 -9°C° 0 mm 2 m/S 752 mmHg 87%
    11:00 -7°C° 0 mm 2 m/S 752 mmHg 85%
    12:00 -6°C° 0 mm 2 m/S 752 mmHg 83%
    13:00 -5°C° 0 mm 2 m/S 752 mmHg 82%
    14:00 -4°C° 0 mm 2 m/S 751 mmHg 80%
    15:00 -5°C° 0 mm 2 m/S 751 mmHg 82%
    16:00 -5°C° 0 mm 2 m/S 751 mmHg 85%
    17:00 -5°C° 0 mm 2 m/S 750 mmHg 87%
    18:00 -6°C° 0 mm 2 m/S 750 mmHg 86%
    19:00 -8°C° 0 mm 3 m/S 750 mmHg 85%
    20:00 -9°C° 0 mm 3 m/S 750 mmHg 84%
    21:00 -9°C° 0 mm 3 m/S 750 mmHg 85%
    22:00 -8°C° 0 mm 3 m/S 750 mmHg 86%
    23:00 -9°C° 0 mm 4 m/S 750 mmHg 87%

    2 März, Freitag

    Zeit Temperatur Niederschläge Wind Luftdruck Luftfeuchtigkeit
    00:00 -9°C° 0 mm 4 m/S 749 mmHg 88%
    01:00 -8°C° 0 mm 4 m/S 749 mmHg 89%
    02:00 -7°C° 0 mm 5 m/S 749 mmHg 89%
    03:00 -7°C° 0 mm 5 m/S 748 mmHg 90%
    04:00 -7°C° 0 mm 4 m/S 748 mmHg 90%
    05:00 -5°C° 0 mm 4 m/S 747 mmHg 90%
    06:00 -6°C° 0 mm 5 m/S 747 mmHg 90%
    07:00 -5°C° 0 mm 5 m/S 746 mmHg 90%
    08:00 -4°C° 0 mm 5 m/S 746 mmHg 90%
    09:00 -2°C° 0 mm 5 m/S 746 mmHg 93%
    10:00 -2°C° 0 mm 5 m/S 745 mmHg 96%
    11:00 -1°C° 0 mm 5 m/S 745 mmHg 98%
    12:00 -1°C° 0 mm 5 m/S 744 mmHg 98%
    13:00 0°C° 0 mm 5 m/S 744 mmHg 99%
    14:00 0°C° 0 mm 5 m/S 743 mmHg 99%
    15:00 0°C° 0 mm 5 m/S 743 mmHg 99%
    16:00 0°C° 0 mm 5 m/S 743 mmHg 99%
    17:00 0°C° 0 mm 5 m/S 742 mmHg 99%
    18:00 0°C° 0 mm 4 m/S 742 mmHg 98%
    19:00 -1°C° 0 mm 4 m/S 742 mmHg 98%
    20:00 -1°C° 0 mm 4 m/S 742 mmHg 97%
    21:00 -1°C° 0 mm 4 m/S 741 mmHg 97%
    22:00 -1°C° 0 mm 4 m/S 741 mmHg 97%
    23:00 -1°C° 0 mm 4 m/S 741 mmHg 97%
    Mehr zeigen